GFSNGP_prec_precacc24_117.txt.gz
Total_Precipitation_Accumulation
0.11 0.12 0.31 0.12 0.08 0.02 0.01 0.00 0.01 0.03 0.05 0.14 0.45 0.55 0.21 0.09 0.06 0.19 0.23 0.24 0.22 0.68 0.48 0.22 0.19 0.22 0.23 0.21 0.31 0.32 0.24 0.19 0.16 0.12 0.09 0.07 0.06 0.06 0.05 0.02 0.01 0.00 0.01 0.00
0.04 0.02 0.05 0.04 0.04 0.05 0.02 0.02 0.01 0.02 0.12 0.30 0.33 0.21 0.18 0.08 0.09 0.16 0.30 0.25 0.22 0.52 1.04 0.57 0.39 0.37 0.43 0.52 0.65 0.52 0.43 0.38 0.24 0.18 0.17 0.13 0.09 0.08 0.07 0.04 0.01 0.01 0.01 0.01
0.05 0.01 0.00 0.13 0.14 0.11 0.12 0.18 0.05 0.12 0.22 0.19 0.15 0.07 0.06 0.05 0.05 0.10 0.15 0.28 0.26 0.34 0.93 0.89 0.62 0.59 0.53 0.73 0.85 0.71 0.65 0.57 0.40 0.30 0.25 0.21 0.13 0.10 0.10 0.06 0.02 0.01 0.01 0.01
0.04 0.01 0.04 0.19 0.07 0.07 0.16 0.18 0.09 0.08 0.09 0.04 0.04 0.11 0.08 0.05 0.05 0.06 0.07 0.17 0.29 0.29 0.55 0.87 0.61 0.48 0.48 0.60 0.82 0.76 0.65 0.63 0.57 0.39 0.31 0.30 0.20 0.15 0.12 0.08 0.05 0.03 0.01 0.01
0.04 0.04 0.06 0.14 0.13 0.11 0.17 0.19 0.08 0.13 0.12 0.02 0.01 0.04 0.03 0.01 0.02 0.03 0.05 0.09 0.14 0.26 0.41 0.96 0.90 0.73 0.70 0.54 0.62 0.75 0.62 0.62 0.56 0.47 0.33 0.34 0.31 0.27 0.17 0.10 0.07 0.05 0.02 0.01
0.05 0.07 0.13 0.26 0.22 0.02 0.16 0.36 0.24 0.12 0.07 0.01 0.01 0.07 0.03 0.02 0.03 0.03 0.06 0.10 0.13 0.14 0.30 0.71 1.17 1.05 1.29 0.96 0.82 0.83 0.76 0.70 0.60 0.49 0.37 0.33 0.28 0.28 0.29 0.17 0.11 0.08 0.05 0.04
0.09 0.10 0.16 0.04 0.06 0.06 0.26 0.42 0.22 0.13 0.09 0.01 0.02 0.05 0.03 0.09 0.07 0.07 0.07 0.09 0.08 0.10 0.20 0.33 0.85 1.14 1.25 1.53 1.25 1.09 1.06 0.84 0.90 0.73 0.49 0.39 0.34 0.28 0.23 0.20 0.19 0.21 0.22 0.16
0.27 0.24 0.23 0.04 0.01 0.13 0.49 0.25 0.12 0.11 0.06 0.01 0.02 0.18 0.28 0.20 0.16 0.22 0.23 0.25 0.16 0.08 0.13 0.27 0.34 0.77 0.99 1.19 1.31 1.30 1.41 1.30 1.01 1.19 0.98 0.70 0.55 0.41 0.27 0.26 0.30 0.32 0.34 0.36
0.19 0.28 0.11 0.02 0.04 0.04 0.03 0.02 0.01 0.01 0.00 0.00 0.00 0.04 0.26 0.31 0.19 0.29 0.47 0.49 0.36 0.23 0.17 0.16 0.23 0.37 0.57 0.79 0.88 1.06 1.07 1.28 1.29 1.24 1.46 1.27 1.00 0.86 0.58 0.45 0.42 0.37 0.40 0.49
0.29 0.26 0.05 0.05 0.05 0.04 0.01 0.01 0.00 0.00 0.00 0.00 0.00 0.00 0.02 0.08 0.11 0.26 0.53 0.46 0.35 0.27 0.28 0.26 0.21 0.19 0.22 0.23 0.33 0.49 0.62 0.70 0.82 1.08 1.20 1.29 1.34 1.21 1.01 0.84 0.77 0.81 0.84 0.85
0.68 0.58 0.36 0.15 0.13 0.18 0.07 0.02 0.00 0.00 0.00 0.00 0.00 0.00 0.00 0.01 0.03 0.08 0.23 0.26 0.33 0.30 0.31 0.29 0.25 0.17 0.13 0.11 0.12 0.18 0.25 0.25 0.26 0.41 0.61 0.76 0.96 1.09 1.15 1.10 0.99 0.91 0.86 0.85
0.95 0.77 0.64 0.38 0.31 0.23 0.18 0.05 0.00 0.00 0.00 0.00 0.00 0.00 0.00 0.01 0.01 0.02 0.04 0.04 0.08 0.10 0.11 0.10 0.07 0.06 0.05 0.04 0.04 0.06 0.10 0.13 0.16 0.15 0.23 0.35 0.47 0.65 0.81 0.93 0.91 0.94 1.00 0.98
0.64 0.88 0.70 0.58 0.39 0.27 0.18 0.12 0.03 0.00 0.00 0.00 0.00 0.00 0.00 0.00 0.01 0.01 0.02 0.03 0.04 0.05 0.05 0.05 0.04 0.04 0.03 0.02 0.01 0.01 0.02 0.04 0.07 0.11 0.16 0.22 0.24 0.29 0.52 0.70 0.81 0.94 0.95 0.92
0.31 0.36 0.41 0.38 0.32 0.20 0.13 0.07 0.04 0.01 0.00 0.00 0.00 0.00 0.00 0.00 0.00 0.00 0.02 0.03 0.02 0.02 0.03 0.03 0.03 0.06 0.06 0.03 0.02 0.01 0.01 0.02 0.03 0.07 0.11 0.16 0.21 0.27 0.31 0.34 0.36 0.48 0.54 0.52
0.16 0.11 0.18 0.20 0.17 0.13 0.06 0.03 0.01 0.01 0.01 0.01 0.00 0.00 0.00 0.00 0.01 0.01 0.02 0.02 0.01 0.01 0.03 0.03 0.03 0.09 0.09 0.05 0.03 0.03 0.02 0.03 0.02 0.04 0.05 0.07 0.10 0.13 0.15 0.18 0.19 0.25 0.25 0.23
0.04 0.02 0.05 0.09 0.11 0.11 0.08 0.05 0.02 0.01 0.01 0.00 0.00 0.01 0.00 0.00 0.01 0.02 0.02 0.03 0.03 0.06 0.07 0.06 0.08 0.14 0.10 0.08 0.05 0.04 0.05 0.04 0.02 0.02 0.03 0.03 0.05 0.05 0.07 0.07 0.07 0.09 0.10 0.14
0.01 0.01 0.00 0.03 0.04 0.02 0.01 0.01 0.01 0.00 0.00 0.01 0.01 0.00 0.01 0.00 0.01 0.02 0.04 0.05 0.04 0.08 0.09 0.09 0.14 0.12 0.10 0.10 0.08 0.09 0.07 0.07 0.04 0.03 0.04 0.04 0.04 0.04 0.04 0.04 0.03 0.04 0.04 0.02
0.00 0.00 0.00 0.01 0.01 0.01 0.00 0.00 0.00 0.00 0.01 0.02 0.02 0.01 0.01 0.02 0.03 0.04 0.06 0.05 0.03 0.03 0.06 0.13 0.13 0.11 0.10 0.12 0.09 0.08 0.06 0.06 0.06 0.06 0.06 0.05 0.04 0.03 0.02 0.01 0.01 0.00 0.00 0.00
0.00 0.00 0.00 0.01 0.01 0.00 0.00 0.01 0.01 0.02 0.03 0.02 0.02 0.03 0.03 0.04 0.04 0.05 0.04 0.02 0.02 0.03 0.10 0.11 0.11 0.09 0.09 0.11 0.08 0.08 0.08 0.08 0.07 0.07 0.06 0.05 0.03 0.02 0.00 0.00 0.00 0.00 0.00 0.00
0.00 0.01 0.01 0.01 0.01 0.00 0.01 0.02 0.01 0.02 0.03 0.02 0.02 0.02 0.03 0.04 0.05 0.06 0.04 0.04 0.08 0.14 0.10 0.08 0.07 0.07 0.08 0.09 0.08 0.08 0.08 0.07 0.05 0.04 0.02 0.00 0.00 0.00 0.00 0.00 0.00 0.00 0.00 0.00
0.01 0.01 0.01 0.01 0.01 0.01 0.02 0.02 0.01 0.02 0.03 0.01 0.01 0.03 0.03 0.04 0.04 0.04 0.04 0.04 0.08 0.07 0.05 0.04 0.04 0.05 0.04 0.04 0.03 0.04 0.03 0.03 0.01 0.01 0.00 0.00 0.00 0.00 0.00 0.00 0.00 0.00 0.00 0.00
0.01 0.01 0.01 0.01 0.01 0.02 0.03 0.02 0.01 0.01 0.02 0.02 0.02 0.03 0.05 0.05 0.06 0.04 0.04 0.06 0.05 0.03 0.02 0.02 0.01 0.00 0.00 0.00 0.00 0.00 0.00 0.00 0.00 0.00 0.00 0.00 0.00 0.00 0.00 0.00 0.00 0.00 0.00 0.00
0.01 0.01 0.01 0.01 0.01 0.02 0.02 0.01 0.02 0.01 0.02 0.02 0.02 0.03 0.04 0.04 0.04 0.05 0.03 0.04 0.02 0.01 0.00 0.00 0.00 0.00 0.00 0.00 0.00 0.00 0.00 0.00 0.00 0.01 0.01 0.01 0.01 0.00 0.00 0.00 0.01 0.01 0.01 0.00
0.01 0.01 0.02 0.01 0.02 0.02 0.02 0.03 0.02 0.02 0.02 0.03 0.02 0.02 0.04 0.05 0.04 0.02 0.01 0.01 0.00 0.00 0.00 0.00 0.00 0.00 0.00 0.00 0.00 0.01 0.01 0.01 0.00 0.00 0.00 0.00 0.00 0.00 0.00 0.00 0.00 0.00 0.00 0.00
0.01 0.01 0.01 0.03 0.03 0.01 0.02 0.01 0.01 0.02 0.01 0.02 0.02 0.02 0.01 0.01 0.01 0.01 0.00 0.00 0.00 0.00 0.00 0.00 0.00 0.00 0.00 0.00 0.00 0.00 0.00 0.00 0.00 0.00 0.00 0.00 0.00 0.01 0.01 0.01 0.00 0.00 0.00 0.01
0.04 0.04 0.03 0.03 0.02 0.01 0.01 0.01 0.01 0.00 0.01 0.02 0.01 0.01 0.01 0.00 0.00 0.00 0.00 0.00 0.00 0.00 0.00 0.00 0.00 0.00 0.00 0.00 0.00 0.00 0.00 0.00 0.00 0.00 0.00 0.00 0.00 0.00 0.00 0.00 0.01 0.01 0.00 0.00
0.03 0.03 0.04 0.05 0.04 0.03 0.02 0.01 0.03 0.01 0.00 0.01 0.02 0.01 0.00 0.00 0.00 0.00 0.00 0.00 0.01 0.01 0.01 0.00 0.00 0.00 0.00 0.00 0.00 0.01 0.00 0.00 0.00 0.00 0.00 0.00 0.00 0.00 0.00 0.00 0.00 0.00 0.00 0.00

GFSNGP_prec_precacc24_123.txt.gz
Total_Precipitation_Accumulation
0.11 0.15 0.51 0.30 0.07 0.01 0.01 0.02 0.03 0.16 0.36 0.53 1.13 1.18 0.95 0.77 0.37 0.35 0.34 0.35 0.27 0.69 0.49 0.23 0.19 0.20 0.21 0.18 0.24 0.24 0.22 0.18 0.16 0.12 0.08 0.07 0.07 0.08 0.07 0.06 0.03 0.02 0.04 0.04
0.04 0.04 0.23 0.25 0.08 0.06 0.03 0.04 0.04 0.06 0.27 0.75 0.48 0.31 0.34 0.38 0.46 0.22 0.22 0.25 0.22 0.49 0.98 0.49 0.29 0.26 0.28 0.33 0.41 0.40 0.35 0.33 0.23 0.18 0.17 0.14 0.10 0.09 0.10 0.10 0.07 0.07 0.03 0.03
0.05 0.01 0.10 0.45 0.60 0.32 0.18 0.28 0.13 0.18 0.34 0.58 0.28 0.07 0.04 0.03 0.06 0.12 0.14 0.24 0.25 0.31 0.87 0.79 0.43 0.35 0.32 0.41 0.52 0.49 0.50 0.47 0.34 0.26 0.25 0.21 0.14 0.11 0.13 0.14 0.12 0.10 0.09 0.04
0.04 0.01 0.26 0.66 0.54 0.49 0.65 0.48 0.53 0.44 0.48 0.36 0.17 0.09 0.04 0.02 0.02 0.04 0.05 0.15 0.29 0.28 0.52 0.83 0.56 0.42 0.40 0.52 0.68 0.58 0.55 0.52 0.41 0.29 0.24 0.29 0.21 0.17 0.15 0.17 0.18 0.14 0.11 0.08
0.04 0.06 0.28 0.25 0.12 0.14 0.23 0.22 0.21 0.34 0.34 0.12 0.02 0.03 0.02 0.00 0.00 0.01 0.03 0.07 0.14 0.26 0.41 0.96 0.90 0.72 0.69 0.52 0.54 0.61 0.51 0.49 0.44 0.36 0.27 0.31 0.31 0.27 0.24 0.23 0.26 0.25 0.16 0.10
0.05 0.07 0.15 0.26 0.22 0.02 0.16 0.35 0.25 0.14 0.11 0.06 0.04 0.08 0.03 0.01 0.00 0.01 0.03 0.08 0.12 0.14 0.30 0.71 1.17 1.05 1.30 0.96 0.81 0.79 0.71 0.62 0.49 0.43 0.37 0.35 0.28 0.42 0.46 0.35 0.29 0.25 0.22 0.18
0.09 0.10 0.18 0.04 0.06 0.06 0.24 0.41 0.23 0.14 0.12 0.02 0.01 0.02 0.01 0.01 0.01 0.03 0.05 0.08 0.08 0.10 0.20 0.33 0.86 1.14 1.26 1.53 1.26 1.09 1.06 0.77 0.80 0.65 0.51 0.47 0.44 0.39 0.53 0.52 0.38 0.36 0.38 0.32
0.26 0.23 0.24 0.05 0.02 0.17 0.49 0.20 0.13 0.11 0.06 0.01 0.00 0.00 0.00 0.00 0.01 0.10 0.16 0.21 0.16 0.08 0.13 0.27 0.34 0.77 0.99 1.20 1.31 1.30 1.42 1.30 1.02 1.18 0.97 0.77 0.70 0.63 0.49 0.63 0.86 0.77 0.63 0.53
0.20 0.29 0.13 0.03 0.07 0.11 0.07 0.04 0.02 0.01 0.00 0.00 0.00 0.00 0.00 0.00 0.01 0.16 0.36 0.42 0.36 0.23 0.17 0.16 0.23 0.37 0.58 0.81 0.89 1.06 1.08 1.32 1.36 1.32 1.53 1.32 1.12 0.97 0.86 0.69 0.69 0.81 0.83 0.70
0.26 0.18 0.04 0.04 0.04 0.04 0.03 0.02 0.00 0.01 0.00 0.00 0.00 0.00 0.00 0.00 0.01 0.09 0.41 0.41 0.35 0.27 0.29 0.26 0.21 0.19 0.23 0.24 0.33 0.49 0.63 0.74 0.92 1.20 1.36 1.55 1.60 1.55 1.29 1.13 0.95 0.84 0.74 0.78
0.44 0.29 0.26 0.13 0.12 0.18 0.08 0.03 0.00 0.00 0.00 0.00 0.00 0.00 0.01 0.01 0.01 0.02 0.18 0.26 0.33 0.31 0.31 0.29 0.25 0.17 0.13 0.11 0.12 0.19 0.27 0.30 0.33 0.53 0.80 1.14 1.50 1.78 1.79 1.71 1.43 1.22 1.00 0.86
0.51 0.45 0.42 0.34 0.32 0.23 0.18 0.06 0.00 0.00 0.00 0.00 0.00 0.00 0.00 0.01 0.01 0.01 0.02 0.03 0.08 0.10 0.11 0.10 0.07 0.07 0.05 0.05 0.04 0.06 0.11 0.16 0.22 0.26 0.38 0.55 0.82 1.12 1.44 1.66 1.58 1.44 1.35 1.13
0.29 0.36 0.38 0.42 0.37 0.28 0.20 0.14 0.04 0.01 0.01 0.02 0.01 0.01 0.00 0.00 0.00 0.01 0.02 0.02 0.03 0.05 0.05 0.05 0.04 0.04 0.03 0.02 0.01 0.01 0.02 0.04 0.08 0.13 0.19 0.31 0.44 0.56 0.74 0.84 0.94 1.00 1.00 0.99
0.25 0.33 0.37 0.36 0.33 0.22 0.17 0.14 0.07 0.04 0.04 0.03 0.02 0.02 0.01 0.00 0.00 0.00 0.02 0.02 0.02 0.02 0.03 0.04 0.03 0.06 0.07 0.03 0.02 0.01 0.01 0.02 0.03 0.04 0.05 0.09 0.16 0.28 0.38 0.42 0.45 0.52 0.54 0.50
0.09 0.11 0.18 0.20 0.17 0.14 0.10 0.08 0.05 0.06 0.07 0.05 0.04 0.03 0.02 0.02 0.01 0.01 0.01 0.01 0.00 0.01 0.02 0.02 0.02 0.07 0.08 0.04 0.02 0.03 0.02 0.02 0.02 0.02 0.02 0.02 0.03 0.05 0.07 0.13 0.19 0.25 0.23 0.19
0.04 0.03 0.05 0.09 0.11 0.11 0.09 0.06 0.04 0.04 0.04 0.02 0.02 0.04 0.02 0.01 0.02 0.01 0.01 0.01 0.02 0.04 0.04 0.03 0.04 0.09 0.07 0.07 0.04 0.03 0.03 0.03 0.02 0.02 0.02 0.01 0.01 0.01 0.01 0.02 0.02 0.04 0.06 0.10
0.03 0.02 0.01 0.03 0.04 0.02 0.01 0.01 0.01 0.01 0.00 0.00 0.01 0.01 0.01 0.00 0.00 0.02 0.03 0.03 0.03 0.04 0.06 0.05 0.10 0.08 0.07 0.06 0.05 0.06 0.05 0.04 0.03 0.03 0.03 0.03 0.02 0.02 0.02 0.01 0.01 0.02 0.03 0.02
0.00 0.00 0.00 0.01 0.01 0.00 0.00 0.00 0.00 0.00 0.01 0.01 0.01 0.01 0.01 0.01 0.02 0.03 0.03 0.03 0.02 0.02 0.03 0.07 0.08 0.07 0.05 0.07 0.05 0.05 0.04 0.04 0.04 0.04 0.04 0.03 0.03 0.02 0.01 0.00 0.00 0.00 0.01 0.00
0.00 0.00 0.00 0.00 0.00 0.00 0.00 0.00 0.01 0.02 0.02 0.02 0.01 0.02 0.02 0.03 0.03 0.02 0.02 0.01 0.02 0.02 0.05 0.06 0.06 0.05 0.05 0.06 0.04 0.04 0.05 0.05 0.04 0.04 0.04 0.03 0.02 0.01 0.00 0.00 0.00 0.00 0.00 0.00
0.00 0.01 0.01 0.01 0.01 0.00 0.01 0.01 0.01 0.01 0.02 0.02 0.01 0.01 0.02 0.03 0.03 0.05 0.03 0.02 0.06 0.10 0.07 0.05 0.04 0.04 0.05 0.05 0.04 0.03 0.04 0.04 0.03 0.03 0.01 0.00 0.00 0.00 0.00 0.00 0.00 0.00 0.00 0.00
0.01 0.01 0.01 0.01 0.01 0.01 0.01 0.01 0.01 0.01 0.01 0.01 0.01 0.02 0.02 0.02 0.02 0.03 0.03 0.02 0.04 0.04 0.03 0.02 0.02 0.03 0.03 0.03 0.02 0.03 0.03 0.03 0.02 0.01 0.00 0.00 0.00 0.00 0.00 0.00 0.00 0.00 0.00 0.00
0.01 0.01 0.01 0.01 0.01 0.01 0.02 0.01 0.01 0.01 0.01 0.01 0.01 0.01 0.04 0.03 0.04 0.03 0.02 0.03 0.02 0.01 0.00 0.00 0.01 0.01 0.00 0.00 0.01 0.01 0.01 0.01 0.01 0.01 0.01 0.00 0.00 0.00 0.00 0.00 0.00 0.00 0.00 0.00
0.01 0.01 0.01 0.01 0.01 0.01 0.01 0.01 0.01 0.00 0.01 0.01 0.01 0.02 0.03 0.02 0.02 0.03 0.01 0.01 0.00 0.00 0.00 0.00 0.00 0.00 0.00 0.00 0.00 0.01 0.00 0.01 0.01 0.01 0.01 0.01 0.01 0.01 0.00 0.01 0.01 0.01 0.01 0.00
0.01 0.01 0.02 0.01 0.02 0.02 0.02 0.02 0.01 0.01 0.01 0.01 0.01 0.01 0.03 0.04 0.02 0.01 0.00 0.00 0.00 0.00 0.00 0.00 0.00 0.00 0.00 0.00 0.00 0.01 0.01 0.01 0.01 0.00 0.00 0.00 0.00 0.00 0.00 0.00 0.00 0.00 0.00 0.00
0.01 0.01 0.01 0.03 0.03 0.01 0.01 0.01 0.01 0.01 0.01 0.01 0.01 0.01 0.00 0.00 0.01 0.01 0.00 0.00 0.00 0.00 0.00 0.00 0.00 0.00 0.00 0.00 0.00 0.00 0.00 0.00 0.01 0.00 0.00 0.01 0.01 0.01 0.01 0.01 0.01 0.01 0.00 0.00
0.03 0.03 0.02 0.02 0.02 0.01 0.01 0.01 0.01 0.01 0.02 0.02 0.01 0.01 0.00 0.00 0.00 0.00 0.00 0.00 0.00 0.00 0.00 0.00 0.00 0.00 0.00 0.00 0.00 0.00 0.00 0.00 0.00 0.00 0.00 0.00 0.00 0.00 0.00 0.01 0.01 0.00 0.00 0.00
0.02 0.02 0.03 0.04 0.03 0.02 0.01 0.01 0.02 0.01 0.01 0.01 0.02 0.01 0.00 0.00 0.00 0.00 0.00 0.00 0.01 0.01 0.01 0.00 0.00 0.00 0.00 0.00 0.00 0.01 0.00 0.00 0.00 0.00 0.00 0.00 0.00 0.00 0.00 0.00 0.00 0.00 0.00 0.00

GFSNGP_prec_precacc24_129.txt.gz
Total_Precipitation_Accumulation
0.10 0.16 0.63 0.44 0.13 0.12 0.11 0.06 0.13 0.53 0.60 0.92 1.62 1.83 1.63 1.55 1.04 0.79 0.64 0.46 0.41 0.51 0.32 0.17 0.14 0.11 0.11 0.08 0.07 0.10 0.15 0.16 0.16 0.12 0.08 0.07 0.07 0.08 0.07 0.06 0.04 0.02 0.05 0.06
0.01 0.04 0.35 0.35 0.12 0.09 0.10 0.10 0.21 0.39 0.40 0.97 0.71 0.47 0.41 0.52 0.77 0.56 0.52 0.42 0.28 0.44 0.75 0.35 0.14 0.13 0.11 0.14 0.13 0.16 0.20 0.19 0.18 0.17 0.17 0.14 0.10 0.09 0.10 0.10 0.07 0.07 0.04 0.05
0.04 0.02 0.23 0.58 0.69 0.48 0.33 0.40 0.25 0.35 0.55 0.74 0.35 0.07 0.03 0.02 0.06 0.15 0.19 0.19 0.16 0.16 0.57 0.65 0.27 0.17 0.12 0.14 0.19 0.21 0.26 0.29 0.25 0.22 0.23 0.21 0.14 0.11 0.13 0.14 0.12 0.11 0.10 0.06
0.04 0.06 0.35 0.73 0.58 0.61 0.84 0.62 0.72 0.67 0.70 0.49 0.24 0.07 0.01 0.01 0.01 0.02 0.02 0.03 0.09 0.13 0.31 0.61 0.49 0.35 0.29 0.29 0.38 0.41 0.42 0.40 0.34 0.26 0.23 0.28 0.20 0.16 0.15 0.17 0.18 0.14 0.12 0.09
0.05 0.08 0.32 0.20 0.06 0.14 0.29 0.24 0.23 0.34 0.34 0.16 0.09 0.04 0.01 0.01 0.01 0.01 0.02 0.03 0.05 0.11 0.25 0.67 0.76 0.62 0.60 0.44 0.39 0.39 0.34 0.26 0.26 0.28 0.23 0.30 0.29 0.25 0.23 0.22 0.26 0.26 0.16 0.11
0.05 0.08 0.16 0.22 0.16 0.03 0.19 0.38 0.27 0.15 0.12 0.07 0.04 0.06 0.04 0.02 0.01 0.00 0.01 0.03 0.08 0.08 0.21 0.58 0.93 0.93 1.21 0.93 0.75 0.69 0.61 0.56 0.45 0.38 0.32 0.32 0.27 0.39 0.43 0.32 0.28 0.25 0.22 0.19
0.09 0.11 0.19 0.04 0.06 0.06 0.26 0.44 0.26 0.16 0.14 0.03 0.02 0.04 0.04 0.01 0.00 0.01 0.02 0.04 0.06 0.08 0.18 0.32 0.81 1.12 1.25 1.52 1.26 1.09 1.05 0.76 0.79 0.63 0.49 0.43 0.39 0.33 0.47 0.47 0.34 0.33 0.37 0.34
0.26 0.22 0.25 0.05 0.01 0.18 0.55 0.25 0.14 0.12 0.08 0.03 0.02 0.02 0.01 0.00 0.00 0.02 0.04 0.08 0.09 0.07 0.12 0.27 0.35 0.78 1.00 1.20 1.32 1.30 1.42 1.30 1.02 1.18 0.97 0.77 0.68 0.58 0.43 0.55 0.79 0.75 0.62 0.45
0.19 0.30 0.14 0.04 0.09 0.14 0.09 0.06 0.04 0.03 0.01 0.01 0.01 0.01 0.00 0.00 0.00 0.04 0.08 0.11 0.13 0.15 0.16 0.16 0.24 0.38 0.59 0.81 0.89 1.06 1.08 1.32 1.36 1.32 1.54 1.31 1.11 0.94 0.81 0.62 0.58 0.77 0.87 0.81
0.13 0.13 0.04 0.03 0.04 0.04 0.04 0.04 0.01 0.02 0.01 0.00 0.01 0.00 0.00 0.00 0.00 0.02 0.10 0.18 0.25 0.22 0.24 0.24 0.21 0.20 0.25 0.24 0.33 0.49 0.63 0.74 0.92 1.20 1.36 1.55 1.60 1.54 1.29 1.12 0.91 0.79 0.75 0.85
0.12 0.13 0.15 0.09 0.08 0.09 0.06 0.03 0.01 0.00 0.00 0.00 0.00 0.01 0.00 0.00 0.00 0.00 0.04 0.14 0.23 0.27 0.27 0.26 0.25 0.18 0.14 0.12 0.12 0.19 0.27 0.30 0.33 0.53 0.80 1.14 1.51 1.82 1.84 1.81 1.55 1.31 1.13 0.93
0.17 0.14 0.16 0.15 0.14 0.12 0.12 0.06 0.01 0.01 0.01 0.00 0.00 0.01 0.01 0.00 0.01 0.01 0.00 0.01 0.05 0.09 0.10 0.10 0.08 0.07 0.06 0.05 0.05 0.06 0.11 0.16 0.22 0.26 0.38 0.55 0.83 1.14 1.50 1.78 1.73 1.65 1.63 1.48
0.18 0.19 0.17 0.19 0.18 0.14 0.18 0.15 0.04 0.01 0.02 0.02 0.02 0.01 0.00 0.00 0.01 0.01 0.01 0.00 0.01 0.03 0.04 0.04 0.04 0.04 0.04 0.03 0.01 0.02 0.03 0.04 0.08 0.13 0.20 0.31 0.44 0.59 0.78 0.95 1.12 1.26 1.30 1.38
0.17 0.23 0.23 0.21 0.22 0.18 0.17 0.15 0.07 0.05 0.04 0.04 0.03 0.02 0.01 0.01 0.00 0.01 0.02 0.02 0.01 0.01 0.02 0.02 0.02 0.06 0.07 0.04 0.02 0.01 0.01 0.02 0.03 0.04 0.06 0.10 0.16 0.30 0.43 0.50 0.57 0.66 0.75 0.78
0.07 0.09 0.16 0.19 0.18 0.14 0.10 0.08 0.06 0.06 0.07 0.05 0.04 0.04 0.03 0.02 0.02 0.02 0.02 0.01 0.01 0.01 0.02 0.03 0.03 0.06 0.07 0.04 0.02 0.03 0.02 0.03 0.02 0.02 0.02 0.02 0.03 0.05 0.08 0.15 0.25 0.35 0.35 0.33
0.03 0.03 0.04 0.09 0.11 0.11 0.09 0.06 0.04 0.04 0.04 0.02 0.02 0.04 0.02 0.02 0.03 0.02 0.01 0.01 0.02 0.04 0.04 0.03 0.04 0.08 0.07 0.06 0.03 0.02 0.03 0.03 0.02 0.02 0.02 0.01 0.01 0.01 0.01 0.01 0.02 0.04 0.08 0.15
0.04 0.03 0.01 0.03 0.03 0.02 0.01 0.01 0.01 0.00 0.00 0.00 0.00 0.01 0.00 0.00 0.00 0.01 0.02 0.01 0.01 0.03 0.05 0.05 0.09 0.07 0.05 0.05 0.04 0.04 0.04 0.03 0.03 0.02 0.03 0.02 0.01 0.01 0.01 0.01 0.01 0.01 0.03 0.02
0.01 0.01 0.00 0.00 0.00 0.00 0.00 0.00 0.00 0.00 0.01 0.01 0.01 0.01 0.01 0.01 0.01 0.02 0.02 0.01 0.01 0.01 0.02 0.05 0.06 0.04 0.03 0.05 0.03 0.02 0.02 0.03 0.02 0.03 0.03 0.02 0.02 0.01 0.01 0.00 0.00 0.00 0.01 0.00
0.00 0.00 0.00 0.00 0.00 0.00 0.00 0.00 0.01 0.01 0.01 0.01 0.01 0.01 0.02 0.02 0.02 0.01 0.01 0.01 0.01 0.02 0.03 0.04 0.03 0.03 0.03 0.03 0.02 0.02 0.03 0.03 0.03 0.03 0.02 0.02 0.01 0.00 0.00 0.00 0.00 0.00 0.00 0.00
0.00 0.00 0.00 0.00 0.00 0.00 0.01 0.01 0.01 0.01 0.01 0.01 0.01 0.01 0.01 0.02 0.02 0.03 0.02 0.02 0.05 0.08 0.04 0.02 0.02 0.02 0.03 0.03 0.02 0.02 0.02 0.02 0.02 0.02 0.01 0.00 0.00 0.00 0.00 0.00 0.00 0.00 0.00 0.00
0.01 0.01 0.01 0.01 0.01 0.00 0.01 0.01 0.01 0.01 0.01 0.00 0.01 0.01 0.01 0.01 0.01 0.02 0.02 0.02 0.02 0.02 0.02 0.01 0.01 0.02 0.01 0.02 0.01 0.02 0.02 0.03 0.02 0.01 0.00 0.00 0.00 0.00 0.00 0.00 0.00 0.00 0.00 0.00
0.01 0.01 0.00 0.00 0.01 0.01 0.01 0.01 0.01 0.01 0.01 0.01 0.00 0.01 0.03 0.03 0.03 0.02 0.01 0.02 0.00 0.00 0.00 0.00 0.01 0.01 0.00 0.00 0.01 0.01 0.01 0.01 0.01 0.01 0.01 0.00 0.00 0.00 0.01 0.00 0.00 0.00 0.00 0.00
0.01 0.01 0.01 0.01 0.01 0.01 0.01 0.01 0.01 0.00 0.01 0.01 0.01 0.01 0.03 0.01 0.01 0.03 0.01 0.00 0.00 0.00 0.00 0.00 0.00 0.00 0.00 0.00 0.00 0.01 0.00 0.01 0.01 0.01 0.01 0.01 0.01 0.01 0.00 0.01 0.01 0.01 0.01 0.00
0.01 0.01 0.01 0.01 0.02 0.02 0.02 0.02 0.01 0.01 0.01 0.01 0.00 0.01 0.03 0.04 0.02 0.00 0.00 0.00 0.00 0.00 0.00 0.00 0.00 0.00 0.00 0.00 0.00 0.01 0.01 0.01 0.01 0.00 0.00 0.00 0.00 0.00 0.00 0.00 0.00 0.00 0.00 0.00
0.01 0.00 0.01 0.02 0.03 0.01 0.01 0.00 0.01 0.01 0.01 0.01 0.01 0.00 0.00 0.00 0.01 0.01 0.00 0.00 0.00 0.00 0.00 0.00 0.00 0.00 0.00 0.00 0.00 0.00 0.00 0.00 0.01 0.00 0.00 0.01 0.01 0.01 0.01 0.01 0.01 0.01 0.00 0.00
0.03 0.02 0.01 0.02 0.01 0.01 0.01 0.01 0.01 0.01 0.02 0.02 0.01 0.01 0.00 0.00 0.00 0.00 0.00 0.00 0.00 0.00 0.00 0.00 0.00 0.00 0.00 0.00 0.00 0.00 0.00 0.00 0.00 0.00 0.00 0.00 0.00 0.00 0.01 0.01 0.01 0.00 0.00 0.00
0.01 0.01 0.02 0.03 0.01 0.01 0.01 0.01 0.02 0.02 0.01 0.01 0.01 0.00 0.00 0.00 0.00 0.00 0.00 0.00 0.01 0.01 0.01 0.00 0.00 0.00 0.00 0.00 0.00 0.01 0.00 0.00 0.00 0.00 0.00 0.00 0.00 0.00 0.00 0.00 0.00 0.00 0.00 0.00

GFSNGP_prec_precacc24_132.txt.gz
Total_Precipitation_Accumulation
0.10 0.16 0.63 0.47 0.13 0.13 0.16 0.08 0.16 0.56 0.61 0.94 1.66 1.87 1.72 1.66 1.13 0.86 0.72 0.62 0.68 0.69 0.50 0.52 0.56 0.32 0.22 0.29 0.16 0.12 0.11 0.09 0.09 0.10 0.09 0.07 0.07 0.08 0.07 0.06 0.04 0.02 0.04 0.05
0.02 0.05 0.38 0.40 0.14 0.09 0.13 0.14 0.24 0.42 0.41 0.99 0.74 0.49 0.42 0.53 0.79 0.58 0.55 0.46 0.31 0.27 0.21 0.10 0.11 0.13 0.09 0.14 0.14 0.13 0.13 0.13 0.13 0.16 0.17 0.14 0.10 0.09 0.10 0.10 0.07 0.07 0.04 0.05
0.04 0.02 0.32 0.66 0.73 0.49 0.36 0.43 0.29 0.38 0.59 0.77 0.35 0.08 0.03 0.02 0.06 0.15 0.20 0.19 0.14 0.05 0.04 0.06 0.07 0.07 0.06 0.06 0.11 0.12 0.17 0.21 0.21 0.22 0.23 0.21 0.14 0.11 0.13 0.14 0.12 0.11 0.10 0.06
0.04 0.06 0.39 0.78 0.59 0.64 0.87 0.64 0.75 0.70 0.72 0.51 0.25 0.07 0.01 0.01 0.01 0.02 0.02 0.03 0.04 0.05 0.06 0.11 0.12 0.16 0.16 0.17 0.22 0.29 0.32 0.34 0.31 0.25 0.23 0.28 0.20 0.16 0.15 0.17 0.18 0.14 0.12 0.09
0.05 0.08 0.34 0.20 0.03 0.13 0.29 0.25 0.23 0.34 0.33 0.16 0.10 0.04 0.01 0.01 0.01 0.01 0.02 0.02 0.03 0.02 0.07 0.22 0.25 0.25 0.40 0.37 0.29 0.27 0.27 0.23 0.22 0.26 0.22 0.30 0.29 0.25 0.23 0.22 0.26 0.26 0.16 0.11
0.05 0.07 0.16 0.20 0.06 0.03 0.16 0.39 0.27 0.15 0.12 0.07 0.04 0.04 0.04 0.02 0.01 0.00 0.00 0.00 0.01 0.01 0.07 0.20 0.43 0.52 0.82 0.70 0.55 0.52 0.41 0.38 0.36 0.31 0.28 0.30 0.26 0.39 0.43 0.32 0.27 0.24 0.22 0.19
0.07 0.11 0.20 0.04 0.01 0.04 0.23 0.46 0.26 0.16 0.15 0.03 0.02 0.04 0.05 0.02 0.00 0.00 0.00 0.00 0.02 0.02 0.06 0.18 0.41 0.62 0.87 1.02 0.87 0.87 0.92 0.68 0.73 0.61 0.46 0.42 0.38 0.31 0.46 0.46 0.32 0.32 0.34 0.33
0.23 0.22 0.25 0.05 0.01 0.17 0.55 0.26 0.15 0.12 0.09 0.03 0.03 0.03 0.01 0.00 0.00 0.00 0.01 0.01 0.02 0.04 0.07 0.17 0.28 0.63 0.87 1.02 1.08 1.11 1.33 1.30 1.02 1.19 0.98 0.77 0.68 0.58 0.42 0.53 0.75 0.72 0.58 0.42
0.17 0.29 0.14 0.04 0.09 0.14 0.10 0.07 0.04 0.03 0.02 0.02 0.01 0.01 0.00 0.00 0.00 0.00 0.02 0.03 0.06 0.07 0.10 0.13 0.20 0.34 0.58 0.80 0.88 1.06 1.08 1.32 1.36 1.32 1.54 1.32 1.12 0.94 0.81 0.62 0.55 0.75 0.84 0.78
0.07 0.06 0.03 0.03 0.03 0.04 0.04 0.04 0.01 0.02 0.01 0.00 0.01 0.00 0.00 0.00 0.00 0.00 0.02 0.06 0.10 0.12 0.16 0.19 0.19 0.20 0.24 0.24 0.33 0.49 0.64 0.74 0.92 1.20 1.36 1.56 1.60 1.54 1.29 1.12 0.90 0.78 0.73 0.82
0.08 0.05 0.08 0.06 0.06 0.06 0.06 0.03 0.01 0.00 0.00 0.00 0.00 0.01 0.00 0.00 0.00 0.00 0.00 0.03 0.09 0.15 0.19 0.20 0.19 0.15 0.14 0.12 0.12 0.19 0.27 0.30 0.34 0.53 0.80 1.14 1.51 1.82 1.85 1.81 1.56 1.33 1.14 0.94
0.09 0.05 0.09 0.10 0.10 0.09 0.07 0.03 0.01 0.01 0.01 0.01 0.00 0.01 0.01 0.00 0.01 0.01 0.00 0.00 0.02 0.06 0.08 0.08 0.07 0.07 0.06 0.06 0.05 0.06 0.11 0.16 0.22 0.26 0.38 0.55 0.83 1.13 1.48 1.78 1.73 1.65 1.64 1.49
0.08 0.07 0.07 0.07 0.07 0.07 0.11 0.09 0.04 0.01 0.02 0.02 0.02 0.01 0.00 0.00 0.01 0.01 0.01 0.00 0.01 0.02 0.03 0.03 0.03 0.04 0.04 0.03 0.01 0.02 0.03 0.04 0.08 0.13 0.19 0.31 0.44 0.59 0.77 0.94 1.11 1.25 1.30 1.38
0.10 0.14 0.14 0.11 0.12 0.11 0.12 0.13 0.07 0.05 0.04 0.04 0.03 0.02 0.02 0.01 0.00 0.01 0.02 0.02 0.01 0.01 0.02 0.02 0.02 0.05 0.06 0.04 0.02 0.01 0.01 0.02 0.03 0.04 0.05 0.09 0.16 0.29 0.42 0.50 0.56 0.65 0.73 0.77
0.05 0.05 0.09 0.13 0.13 0.11 0.10 0.08 0.06 0.06 0.07 0.06 0.05 0.04 0.03 0.03 0.02 0.02 0.02 0.01 0.01 0.01 0.02 0.03 0.03 0.06 0.07 0.04 0.02 0.03 0.02 0.02 0.02 0.02 0.01 0.02 0.03 0.05 0.08 0.15 0.25 0.34 0.34 0.32
0.03 0.02 0.03 0.06 0.10 0.11 0.09 0.06 0.04 0.04 0.04 0.02 0.02 0.04 0.02 0.02 0.03 0.02 0.01 0.01 0.02 0.04 0.04 0.04 0.04 0.08 0.07 0.06 0.03 0.02 0.03 0.03 0.02 0.02 0.01 0.01 0.01 0.01 0.01 0.01 0.02 0.04 0.08 0.15
0.04 0.03 0.01 0.03 0.03 0.02 0.01 0.01 0.01 0.00 0.00 0.00 0.00 0.01 0.00 0.00 0.00 0.01 0.02 0.01 0.01 0.03 0.05 0.05 0.09 0.07 0.05 0.05 0.04 0.04 0.03 0.03 0.02 0.02 0.02 0.02 0.01 0.01 0.01 0.01 0.01 0.01 0.03 0.02
0.01 0.01 0.00 0.00 0.00 0.00 0.00 0.00 0.00 0.00 0.00 0.01 0.00 0.01 0.01 0.01 0.01 0.02 0.02 0.01 0.01 0.01 0.02 0.05 0.06 0.04 0.03 0.04 0.03 0.02 0.02 0.02 0.02 0.03 0.03 0.02 0.01 0.01 0.01 0.00 0.00 0.01 0.01 0.00
0.00 0.00 0.00 0.00 0.00 0.00 0.00 0.00 0.01 0.01 0.01 0.01 0.01 0.01 0.01 0.02 0.02 0.01 0.01 0.00 0.01 0.02 0.03 0.03 0.03 0.02 0.03 0.03 0.02 0.02 0.02 0.02 0.02 0.02 0.02 0.02 0.01 0.00 0.00 0.00 0.00 0.01 0.00 0.01
0.00 0.00 0.00 0.00 0.00 0.00 0.01 0.01 0.01 0.01 0.01 0.01 0.01 0.00 0.01 0.01 0.02 0.03 0.02 0.01 0.04 0.07 0.04 0.02 0.01 0.01 0.02 0.02 0.01 0.02 0.02 0.01 0.01 0.01 0.00 0.00 0.00 0.00 0.00 0.00 0.00 0.00 0.00 0.00
0.00 0.00 0.00 0.00 0.01 0.00 0.01 0.01 0.00 0.01 0.01 0.00 0.01 0.01 0.01 0.01 0.01 0.02 0.02 0.01 0.01 0.01 0.01 0.01 0.01 0.02 0.01 0.01 0.01 0.02 0.02 0.02 0.02 0.01 0.01 0.01 0.00 0.00 0.00 0.00 0.00 0.00 0.00 0.00
0.00 0.00 0.00 0.00 0.00 0.01 0.01 0.01 0.00 0.00 0.00 0.00 0.00 0.01 0.03 0.02 0.03 0.01 0.00 0.02 0.00 0.00 0.00 0.00 0.01 0.01 0.00 0.00 0.01 0.01 0.01 0.01 0.01 0.01 0.01 0.01 0.01 0.01 0.01 0.01 0.01 0.01 0.01 0.00
0.01 0.00 0.00 0.00 0.00 0.00 0.00 0.00 0.00 0.00 0.00 0.00 0.00 0.01 0.02 0.01 0.01 0.02 0.01 0.00 0.00 0.00 0.00 0.00 0.00 0.00 0.00 0.01 0.01 0.01 0.01 0.01 0.01 0.01 0.01 0.01 0.01 0.01 0.01 0.01 0.01 0.01 0.01 0.01
0.01 0.00 0.01 0.00 0.01 0.01 0.01 0.01 0.00 0.00 0.01 0.01 0.00 0.00 0.02 0.04 0.02 0.00 0.00 0.00 0.00 0.00 0.00 0.00 0.00 0.00 0.00 0.01 0.01 0.01 0.01 0.02 0.01 0.01 0.01 0.01 0.01 0.01 0.01 0.01 0.00 0.00 0.00 0.00
0.00 0.00 0.00 0.02 0.02 0.00 0.00 0.00 0.01 0.01 0.01 0.01 0.00 0.00 0.00 0.00 0.01 0.00 0.00 0.00 0.00 0.00 0.00 0.00 0.00 0.00 0.00 0.01 0.00 0.00 0.00 0.01 0.01 0.01 0.01 0.01 0.01 0.01 0.01 0.01 0.01 0.01 0.01 0.01
0.03 0.02 0.01 0.02 0.01 0.00 0.00 0.01 0.01 0.01 0.02 0.02 0.01 0.00 0.00 0.00 0.00 0.01 0.01 0.00 0.00 0.00 0.00 0.00 0.00 0.00 0.00 0.00 0.00 0.00 0.00 0.00 0.00 0.00 0.00 0.00 0.01 0.01 0.01 0.01 0.01 0.00 0.00 0.00
0.01 0.00 0.02 0.02 0.01 0.00 0.00 0.00 0.02 0.02 0.01 0.01 0.01 0.01 0.00 0.00 0.00 0.00 0.01 0.01 0.01 0.01 0.01 0.01 0.00 0.00 0.00 0.01 0.00 0.01 0.00 0.00 0.00 0.00 0.00 0.00 0.00 0.00 0.00 0.01 0.00 0.00 0.00 0.00

GFSNGP_prec_precacc24_138.txt.gz
Total_Precipitation_Accumulation
0.01 0.13 0.49 0.41 0.10 0.12 0.17 0.10 0.21 0.61 0.60 0.88 1.46 1.58 1.71 1.67 1.16 0.88 0.73 0.64 0.71 0.75 0.57 0.69 0.81 0.66 0.53 0.54 0.40 0.56 0.37 0.24 0.21 0.16 0.19 0.21 0.19 0.17 0.27 0.26 0.31 0.20 0.09 0.07
0.02 0.07 0.38 0.38 0.12 0.06 0.11 0.14 0.25 0.45 0.40 0.76 0.58 0.46 0.41 0.53 0.79 0.58 0.56 0.48 0.33 0.31 0.24 0.12 0.12 0.20 0.15 0.24 0.24 0.19 0.26 0.18 0.21 0.15 0.07 0.08 0.10 0.13 0.18 0.19 0.13 0.11 0.05 0.06
0.03 0.05 0.36 0.71 0.73 0.49 0.35 0.43 0.29 0.33 0.46 0.69 0.34 0.08 0.03 0.02 0.06 0.15 0.20 0.19 0.14 0.05 0.04 0.04 0.02 0.01 0.01 0.01 0.02 0.02 0.04 0.09 0.07 0.04 0.04 0.06 0.06 0.08 0.14 0.16 0.13 0.11 0.10 0.06
0.02 0.10 0.47 0.77 0.59 0.65 0.86 0.59 0.74 0.69 0.70 0.51 0.25 0.07 0.00 0.01 0.01 0.02 0.02 0.03 0.04 0.05 0.03 0.02 0.01 0.01 0.00 0.00 0.00 0.00 0.02 0.04 0.09 0.09 0.06 0.13 0.11 0.10 0.13 0.16 0.17 0.14 0.12 0.09
0.02 0.08 0.34 0.16 0.01 0.09 0.21 0.20 0.22 0.33 0.33 0.15 0.09 0.06 0.05 0.01 0.01 0.01 0.02 0.02 0.02 0.02 0.01 0.01 0.01 0.01 0.00 0.00 0.00 0.00 0.03 0.05 0.06 0.08 0.10 0.20 0.24 0.23 0.21 0.21 0.25 0.25 0.16 0.11
0.02 0.04 0.13 0.06 0.00 0.01 0.08 0.18 0.14 0.13 0.12 0.07 0.03 0.05 0.06 0.02 0.01 0.00 0.00 0.00 0.00 0.00 0.00 0.01 0.01 0.01 0.01 0.01 0.01 0.05 0.11 0.11 0.10 0.13 0.15 0.24 0.23 0.37 0.42 0.31 0.26 0.24 0.22 0.18
0.02 0.06 0.12 0.02 0.00 0.01 0.11 0.24 0.10 0.12 0.14 0.03 0.03 0.04 0.05 0.02 0.00 0.00 0.00 0.00 0.00 0.00 0.01 0.02 0.02 0.02 0.02 0.02 0.06 0.16 0.26 0.25 0.21 0.22 0.27 0.30 0.32 0.28 0.43 0.43 0.31 0.31 0.33 0.32
0.03 0.05 0.12 0.03 0.01 0.09 0.28 0.13 0.04 0.07 0.09 0.03 0.03 0.03 0.01 0.00 0.00 0.00 0.00 0.01 0.01 0.01 0.02 0.02 0.02 0.03 0.03 0.07 0.11 0.17 0.31 0.40 0.35 0.36 0.41 0.48 0.46 0.46 0.37 0.49 0.71 0.68 0.55 0.40
0.05 0.07 0.08 0.03 0.08 0.13 0.08 0.05 0.03 0.02 0.02 0.02 0.01 0.01 0.00 0.00 0.00 0.00 0.01 0.01 0.01 0.01 0.02 0.02 0.02 0.05 0.05 0.08 0.12 0.17 0.30 0.46 0.47 0.61 0.76 0.66 0.69 0.58 0.63 0.55 0.51 0.72 0.81 0.74
0.04 0.03 0.01 0.01 0.01 0.03 0.03 0.03 0.01 0.02 0.01 0.00 0.01 0.00 0.00 0.00 0.00 0.00 0.00 0.01 0.01 0.01 0.02 0.03 0.03 0.04 0.08 0.09 0.11 0.17 0.25 0.32 0.45 0.61 0.85 1.02 1.12 1.10 0.98 0.97 0.82 0.73 0.68 0.76
0.03 0.03 0.05 0.02 0.01 0.02 0.02 0.02 0.01 0.00 0.00 0.00 0.00 0.01 0.00 0.00 0.00 0.00 0.00 0.00 0.00 0.01 0.02 0.03 0.03 0.03 0.04 0.06 0.08 0.12 0.21 0.26 0.29 0.42 0.65 0.96 1.28 1.60 1.68 1.71 1.49 1.29 1.13 0.92
0.01 0.01 0.04 0.04 0.03 0.02 0.03 0.02 0.01 0.01 0.01 0.01 0.00 0.01 0.01 0.00 0.01 0.01 0.00 0.00 0.00 0.01 0.01 0.02 0.02 0.02 0.02 0.03 0.03 0.05 0.10 0.16 0.21 0.26 0.38 0.54 0.82 1.09 1.42 1.73 1.68 1.60 1.60 1.49
0.01 0.01 0.02 0.02 0.02 0.03 0.07 0.05 0.02 0.01 0.02 0.02 0.02 0.01 0.00 0.00 0.01 0.01 0.01 0.00 0.01 0.02 0.02 0.02 0.02 0.03 0.03 0.03 0.02 0.02 0.03 0.04 0.08 0.13 0.19 0.31 0.43 0.58 0.75 0.92 1.09 1.22 1.27 1.35
0.01 0.05 0.06 0.05 0.06 0.05 0.07 0.10 0.04 0.04 0.04 0.04 0.03 0.02 0.02 0.01 0.00 0.01 0.02 0.02 0.01 0.01 0.01 0.01 0.01 0.04 0.06 0.04 0.03 0.02 0.02 0.01 0.03 0.04 0.05 0.09 0.16 0.29 0.42 0.50 0.55 0.62 0.71 0.76
0.00 0.00 0.01 0.03 0.03 0.04 0.06 0.07 0.05 0.06 0.07 0.06 0.05 0.04 0.03 0.03 0.02 0.02 0.02 0.01 0.01 0.01 0.02 0.02 0.02 0.04 0.05 0.04 0.03 0.03 0.03 0.02 0.02 0.01 0.01 0.01 0.02 0.04 0.07 0.14 0.24 0.31 0.32 0.30
0.02 0.01 0.00 0.00 0.01 0.03 0.04 0.05 0.04 0.04 0.04 0.02 0.02 0.04 0.02 0.02 0.02 0.02 0.01 0.01 0.01 0.03 0.03 0.03 0.03 0.07 0.05 0.03 0.03 0.02 0.02 0.02 0.02 0.01 0.01 0.00 0.00 0.00 0.00 0.00 0.01 0.04 0.07 0.12
0.03 0.02 0.01 0.01 0.00 0.00 0.00 0.01 0.01 0.00 0.00 0.00 0.00 0.01 0.00 0.00 0.00 0.01 0.02 0.00 0.01 0.02 0.04 0.04 0.07 0.05 0.03 0.02 0.02 0.03 0.02 0.01 0.01 0.01 0.02 0.01 0.01 0.00 0.00 0.01 0.01 0.01 0.03 0.02
0.01 0.01 0.00 0.00 0.00 0.00 0.00 0.00 0.00 0.00 0.00 0.00 0.00 0.00 0.00 0.00 0.01 0.01 0.00 0.00 0.00 0.00 0.01 0.03 0.05 0.03 0.02 0.02 0.01 0.01 0.01 0.01 0.01 0.01 0.01 0.01 0.01 0.01 0.01 0.01 0.01 0.01 0.01 0.00
0.00 0.00 0.00 0.00 0.00 0.00 0.00 0.00 0.00 0.01 0.00 0.00 0.00 0.00 0.01 0.01 0.01 0.00 0.00 0.00 0.00 0.01 0.01 0.01 0.01 0.01 0.02 0.02 0.00 0.01 0.01 0.01 0.01 0.01 0.01 0.01 0.01 0.00 0.00 0.00 0.01 0.01 0.01 0.01
0.00 0.00 0.00 0.00 0.00 0.00 0.00 0.00 0.00 0.00 0.00 0.00 0.00 0.00 0.00 0.01 0.01 0.01 0.00 0.00 0.03 0.05 0.02 0.01 0.00 0.01 0.02 0.02 0.01 0.01 0.01 0.00 0.01 0.00 0.00 0.00 0.00 0.01 0.00 0.00 0.00 0.01 0.01 0.01
0.00 0.00 0.00 0.00 0.00 0.00 0.00 0.00 0.00 0.00 0.00 0.00 0.00 0.00 0.00 0.00 0.00 0.01 0.00 0.01 0.01 0.01 0.01 0.01 0.01 0.02 0.01 0.01 0.01 0.01 0.01 0.01 0.01 0.01 0.01 0.01 0.01 0.01 0.01 0.01 0.01 0.01 0.01 0.01
0.00 0.00 0.00 0.00 0.00 0.00 0.00 0.00 0.00 0.00 0.00 0.00 0.00 0.00 0.01 0.01 0.01 0.00 0.00 0.01 0.00 0.00 0.00 0.00 0.01 0.01 0.00 0.00 0.01 0.01 0.01 0.01 0.01 0.01 0.01 0.01 0.01 0.01 0.01 0.01 0.01 0.01 0.01 0.01
0.00 0.00 0.00 0.00 0.00 0.00 0.00 0.00 0.00 0.00 0.00 0.00 0.00 0.00 0.01 0.00 0.00 0.00 0.00 0.00 0.00 0.00 0.00 0.00 0.00 0.00 0.00 0.00 0.01 0.01 0.01 0.01 0.01 0.01 0.01 0.01 0.02 0.01 0.01 0.01 0.01 0.01 0.01 0.01
0.00 0.00 0.00 0.00 0.00 0.00 0.00 0.00 0.00 0.00 0.00 0.00 0.00 0.00 0.01 0.02 0.00 0.00 0.00 0.00 0.00 0.00 0.00 0.00 0.00 0.00 0.00 0.01 0.01 0.01 0.01 0.01 0.01 0.01 0.01 0.01 0.01 0.01 0.01 0.01 0.01 0.01 0.01 0.01
0.00 0.00 0.00 0.01 0.01 0.00 0.00 0.00 0.00 0.00 0.01 0.00 0.00 0.00 0.00 0.00 0.00 0.00 0.00 0.00 0.00 0.00 0.00 0.00 0.00 0.00 0.00 0.01 0.01 0.00 0.01 0.01 0.01 0.00 0.01 0.01 0.01 0.01 0.01 0.01 0.01 0.01 0.01 0.01
0.01 0.01 0.00 0.01 0.00 0.00 0.00 0.00 0.01 0.01 0.02 0.01 0.00 0.00 0.00 0.00 0.00 0.00 0.00 0.00 0.00 0.00 0.00 0.00 0.00 0.00 0.00 0.01 0.00 0.00 0.01 0.01 0.01 0.00 0.00 0.01 0.01 0.01 0.01 0.01 0.01 0.01 0.01 0.01
0.00 0.00 0.01 0.01 0.00 0.00 0.00 0.00 0.01 0.01 0.00 0.01 0.01 0.00 0.00 0.00 0.01 0.00 0.00 0.01 0.00 0.00 0.01 0.01 0.01 0.00 0.00 0.00 0.00 0.01 0.01 0.01 0.01 0.00 0.00 0.01 0.01 0.01 0.01 0.01 0.01 0.01 0.01 0.01

GFSNGP_prec_precacc24_141.txt.gz
Total_Precipitation_Accumulation
0.00 0.05 0.33 0.38 0.10 0.12 0.17 0.10 0.21 0.61 0.57 0.84 1.25 1.34 1.55 1.64 1.16 0.88 0.73 0.64 0.71 0.75 0.57 0.69 0.81 0.66 0.54 0.60 0.53 0.71 0.69 0.49 0.39 0.43 0.41 0.28 0.30 0.41 0.73 0.75 0.83 1.04 1.07 0.82
0.01 0.06 0.35 0.37 0.11 0.06 0.11 0.14 0.25 0.44 0.33 0.73 0.46 0.32 0.30 0.51 0.79 0.58 0.56 0.48 0.33 0.31 0.24 0.12 0.12 0.20 0.15 0.24 0.26 0.22 0.30 0.23 0.29 0.22 0.18 0.20 0.23 0.22 0.31 0.52 0.60 0.55 0.61 0.77
0.02 0.05 0.36 0.59 0.60 0.39 0.24 0.25 0.25 0.28 0.39 0.59 0.22 0.05 0.02 0.02 0.06 0.15 0.20 0.19 0.14 0.05 0.04 0.04 0.02 0.01 0.01 0.02 0.02 0.02 0.05 0.08 0.06 0.05 0.06 0.05 0.08 0.11 0.15 0.27 0.36 0.40 0.36 0.28
0.03 0.10 0.44 0.64 0.56 0.60 0.72 0.49 0.67 0.63 0.64 0.47 0.22 0.07 0.00 0.01 0.01 0.02 0.02 0.03 0.04 0.05 0.03 0.02 0.01 0.01 0.00 0.00 0.00 0.00 0.00 0.00 0.02 0.02 0.02 0.03 0.03 0.02 0.04 0.10 0.14 0.16 0.18 0.17
0.04 0.09 0.31 0.13 0.01 0.09 0.20 0.18 0.20 0.28 0.29 0.15 0.09 0.06 0.06 0.01 0.01 0.01 0.02 0.02 0.02 0.02 0.01 0.01 0.01 0.01 0.00 0.01 0.01 0.00 0.01 0.01 0.00 0.02 0.04 0.07 0.09 0.08 0.10 0.14 0.20 0.22 0.15 0.10
0.01 0.03 0.10 0.05 0.00 0.01 0.08 0.14 0.04 0.03 0.07 0.06 0.03 0.06 0.08 0.02 0.01 0.00 0.00 0.00 0.00 0.00 0.00 0.01 0.02 0.01 0.01 0.01 0.01 0.02 0.02 0.02 0.01 0.03 0.07 0.10 0.12 0.23 0.25 0.23 0.22 0.21 0.21 0.17
0.01 0.04 0.07 0.01 0.00 0.01 0.09 0.18 0.06 0.03 0.06 0.03 0.03 0.04 0.05 0.02 0.00 0.00 0.00 0.00 0.00 0.00 0.00 0.01 0.02 0.02 0.02 0.02 0.03 0.03 0.02 0.01 0.03 0.04 0.12 0.17 0.21 0.18 0.35 0.38 0.26 0.27 0.30 0.30
0.01 0.01 0.04 0.01 0.00 0.07 0.21 0.10 0.03 0.02 0.03 0.03 0.03 0.03 0.01 0.00 0.00 0.00 0.00 0.00 0.00 0.00 0.01 0.01 0.01 0.02 0.02 0.03 0.02 0.01 0.02 0.02 0.06 0.10 0.16 0.25 0.29 0.33 0.29 0.44 0.66 0.64 0.52 0.38
0.02 0.03 0.03 0.02 0.05 0.09 0.07 0.04 0.03 0.02 0.01 0.02 0.01 0.01 0.00 0.00 0.00 0.00 0.00 0.00 0.00 0.00 0.01 0.01 0.01 0.02 0.03 0.03 0.02 0.00 0.02 0.05 0.10 0.15 0.21 0.24 0.36 0.33 0.48 0.47 0.47 0.67 0.77 0.72
0.02 0.02 0.01 0.01 0.01 0.01 0.03 0.03 0.01 0.02 0.01 0.00 0.01 0.00 0.00 0.00 0.00 0.00 0.00 0.01 0.00 0.01 0.01 0.02 0.01 0.01 0.03 0.02 0.01 0.01 0.02 0.06 0.12 0.17 0.27 0.41 0.45 0.56 0.58 0.67 0.66 0.64 0.62 0.71
0.02 0.02 0.02 0.01 0.01 0.00 0.02 0.01 0.01 0.00 0.00 0.00 0.00 0.01 0.00 0.00 0.00 0.00 0.00 0.00 0.00 0.01 0.01 0.02 0.01 0.01 0.01 0.01 0.01 0.01 0.03 0.05 0.10 0.17 0.28 0.48 0.71 0.97 0.94 1.04 1.01 0.96 0.93 0.83
0.01 0.01 0.02 0.02 0.02 0.01 0.01 0.01 0.01 0.01 0.01 0.01 0.00 0.01 0.01 0.00 0.01 0.01 0.00 0.00 0.00 0.01 0.01 0.02 0.01 0.01 0.01 0.02 0.02 0.01 0.02 0.04 0.08 0.13 0.23 0.36 0.58 0.79 1.07 1.26 1.22 1.20 1.22 1.21
0.01 0.01 0.01 0.01 0.01 0.01 0.04 0.03 0.01 0.01 0.02 0.02 0.02 0.01 0.00 0.00 0.01 0.01 0.01 0.00 0.01 0.02 0.02 0.02 0.02 0.02 0.02 0.02 0.02 0.02 0.03 0.02 0.04 0.08 0.13 0.22 0.34 0.49 0.64 0.81 0.99 1.12 1.18 1.27
0.00 0.02 0.03 0.03 0.04 0.03 0.05 0.08 0.03 0.04 0.04 0.04 0.03 0.02 0.02 0.01 0.00 0.01 0.02 0.02 0.01 0.01 0.01 0.01 0.01 0.03 0.04 0.03 0.02 0.02 0.01 0.01 0.02 0.03 0.04 0.08 0.13 0.25 0.38 0.46 0.50 0.56 0.67 0.75
0.00 0.00 0.01 0.01 0.01 0.02 0.04 0.05 0.04 0.05 0.06 0.05 0.05 0.04 0.03 0.03 0.02 0.02 0.02 0.01 0.01 0.01 0.02 0.02 0.02 0.04 0.03 0.02 0.03 0.02 0.02 0.01 0.01 0.01 0.00 0.01 0.02 0.03 0.06 0.13 0.22 0.29 0.31 0.30
0.02 0.01 0.00 0.00 0.00 0.00 0.01 0.01 0.02 0.03 0.03 0.02 0.02 0.04 0.02 0.02 0.02 0.01 0.01 0.01 0.01 0.03 0.03 0.03 0.03 0.06 0.04 0.02 0.02 0.01 0.02 0.01 0.01 0.01 0.00 0.00 0.00 0.00 0.00 0.00 0.01 0.03 0.06 0.11
0.02 0.02 0.01 0.00 0.00 0.00 0.00 0.00 0.00 0.00 0.00 0.00 0.00 0.01 0.00 0.00 0.00 0.00 0.00 0.00 0.01 0.02 0.03 0.03 0.06 0.05 0.03 0.02 0.02 0.02 0.01 0.01 0.00 0.01 0.01 0.01 0.01 0.00 0.00 0.01 0.01 0.01 0.03 0.02
0.01 0.01 0.00 0.00 0.00 0.00 0.00 0.00 0.00 0.00 0.00 0.00 0.00 0.00 0.00 0.00 0.00 0.00 0.00 0.00 0.00 0.00 0.01 0.02 0.04 0.03 0.02 0.01 0.01 0.01 0.01 0.01 0.01 0.01 0.01 0.01 0.01 0.01 0.01 0.01 0.01 0.01 0.01 0.00
0.00 0.00 0.00 0.00 0.00 0.00 0.00 0.00 0.00 0.00 0.00 0.00 0.00 0.00 0.01 0.01 0.00 0.00 0.00 0.00 0.00 0.00 0.01 0.01 0.01 0.01 0.02 0.02 0.00 0.01 0.01 0.01 0.01 0.01 0.01 0.01 0.01 0.00 0.00 0.00 0.01 0.01 0.01 0.01
0.00 0.00 0.00 0.00 0.00 0.00 0.00 0.00 0.00 0.00 0.00 0.00 0.00 0.00 0.00 0.01 0.01 0.00 0.00 0.00 0.02 0.03 0.02 0.01 0.00 0.01 0.02 0.02 0.00 0.00 0.00 0.00 0.01 0.00 0.00 0.00 0.00 0.01 0.00 0.00 0.00 0.01 0.01 0.01
0.00 0.00 0.00 0.00 0.00 0.00 0.00 0.00 0.00 0.00 0.00 0.00 0.00 0.00 0.00 0.00 0.00 0.00 0.00 0.01 0.00 0.00 0.01 0.01 0.01 0.01 0.01 0.01 0.01 0.01 0.01 0.01 0.01 0.01 0.01 0.01 0.01 0.01 0.01 0.01 0.01 0.01 0.01 0.01
0.00 0.00 0.00 0.00 0.00 0.00 0.00 0.00 0.00 0.00 0.00 0.00 0.00 0.00 0.00 0.00 0.00 0.00 0.00 0.00 0.00 0.00 0.00 0.00 0.00 0.00 0.00 0.00 0.01 0.01 0.01 0.01 0.01 0.01 0.01 0.01 0.01 0.01 0.01 0.01 0.01 0.01 0.01 0.01
0.00 0.00 0.00 0.00 0.00 0.00 0.00 0.00 0.00 0.00 0.00 0.00 0.00 0.00 0.00 0.00 0.00 0.00 0.00 0.00 0.00 0.00 0.00 0.00 0.00 0.00 0.00 0.00 0.01 0.01 0.01 0.01 0.01 0.01 0.01 0.01 0.01 0.01 0.01 0.01 0.01 0.01 0.01 0.01
0.00 0.00 0.00 0.00 0.00 0.00 0.00 0.00 0.00 0.00 0.00 0.00 0.00 0.00 0.00 0.00 0.00 0.00 0.00 0.00 0.00 0.00 0.00 0.00 0.00 0.00 0.00 0.01 0.01 0.01 0.01 0.01 0.01 0.01 0.01 0.01 0.01 0.01 0.01 0.01 0.01 0.01 0.01 0.01
0.00 0.00 0.00 0.00 0.00 0.00 0.00 0.00 0.00 0.00 0.00 0.00 0.00 0.00 0.00 0.00 0.00 0.01 0.00 0.00 0.00 0.00 0.00 0.00 0.00 0.00 0.00 0.01 0.01 0.00 0.01 0.01 0.01 0.00 0.01 0.01 0.01 0.01 0.01 0.01 0.01 0.01 0.01 0.01
0.00 0.00 0.00 0.00 0.00 0.00 0.00 0.00 0.00 0.01 0.01 0.00 0.00 0.00 0.00 0.00 0.00 0.00 0.00 0.00 0.00 0.00 0.00 0.00 0.00 0.00 0.00 0.01 0.01 0.00 0.01 0.01 0.01 0.00 0.00 0.01 0.01 0.01 0.01 0.01 0.01 0.01 0.01 0.01
0.00 0.00 0.00 0.00 0.00 0.00 0.00 0.00 0.00 0.00 0.00 0.00 0.00 0.00 0.00 0.00 0.01 0.00 0.00 0.01 0.00 0.00 0.01 0.01 0.01 0.00 0.00 0.00 0.00 0.01 0.01 0.01 0.01 0.00 0.00 0.01 0.01 0.01 0.01 0.01 0.01 0.01 0.01 0.01

GFSNGP_prec_precacc24_144.txt.gz
Total_Precipitation_Accumulation
0.00 0.03 0.25 0.31 0.09 0.12 0.17 0.09 0.20 0.57 0.52 0.76 1.10 1.12 1.27 1.22 1.06 0.88 0.72 0.64 0.71 0.75 0.57 0.69 0.81 0.66 0.54 0.61 0.53 0.71 0.71 0.55 0.48 0.57 0.75 0.56 0.48 0.61 0.84 0.78 0.83 1.04 1.10 1.12
0.01 0.05 0.25 0.27 0.10 0.05 0.11 0.14 0.24 0.41 0.26 0.58 0.42 0.25 0.14 0.27 0.69 0.58 0.56 0.48 0.33 0.31 0.24 0.12 0.12 0.20 0.16 0.24 0.26 0.22 0.30 0.24 0.32 0.27 0.32 0.36 0.40 0.33 0.35 0.50 0.59 0.59 0.71 1.00
0.02 0.05 0.32 0.33 0.33 0.36 0.22 0.20 0.24 0.27 0.36 0.47 0.14 0.03 0.02 0.02 0.06 0.15 0.20 0.19 0.14 0.06 0.04 0.05 0.02 0.02 0.01 0.02 0.02 0.02 0.05 0.08 0.06 0.05 0.06 0.05 0.08 0.12 0.15 0.23 0.34 0.44 0.49 0.49
0.03 0.10 0.31 0.33 0.27 0.34 0.33 0.25 0.47 0.47 0.43 0.31 0.11 0.07 0.00 0.01 0.01 0.02 0.02 0.03 0.04 0.05 0.03 0.02 0.01 0.01 0.00 0.01 0.00 0.00 0.00 0.00 0.02 0.02 0.01 0.01 0.01 0.01 0.01 0.02 0.04 0.09 0.18 0.27
0.05 0.10 0.19 0.05 0.01 0.07 0.14 0.12 0.10 0.15 0.16 0.09 0.08 0.06 0.06 0.01 0.01 0.01 0.02 0.02 0.02 0.02 0.01 0.01 0.01 0.01 0.00 0.01 0.01 0.01 0.01 0.01 0.00 0.01 0.00 0.00 0.00 0.01 0.02 0.03 0.02 0.04 0.07 0.10
0.01 0.05 0.09 0.04 0.00 0.01 0.07 0.12 0.03 0.02 0.03 0.02 0.01 0.06 0.08 0.02 0.01 0.00 0.00 0.00 0.00 0.00 0.00 0.01 0.02 0.01 0.01 0.02 0.01 0.03 0.03 0.02 0.01 0.01 0.01 0.00 0.01 0.02 0.02 0.05 0.06 0.06 0.14 0.17
0.01 0.03 0.04 0.01 0.00 0.01 0.07 0.13 0.04 0.03 0.04 0.02 0.02 0.04 0.05 0.02 0.00 0.00 0.00 0.00 0.00 0.00 0.00 0.02 0.02 0.01 0.01 0.02 0.04 0.04 0.02 0.01 0.01 0.00 0.02 0.01 0.02 0.03 0.04 0.09 0.09 0.12 0.20 0.28
0.01 0.01 0.03 0.01 0.00 0.04 0.11 0.07 0.02 0.01 0.03 0.03 0.03 0.03 0.01 0.00 0.00 0.00 0.00 0.00 0.00 0.00 0.01 0.01 0.01 0.01 0.02 0.04 0.03 0.01 0.00 0.00 0.01 0.01 0.02 0.03 0.03 0.06 0.07 0.15 0.31 0.44 0.38 0.31
0.01 0.02 0.02 0.01 0.03 0.05 0.04 0.03 0.03 0.02 0.01 0.02 0.01 0.01 0.00 0.00 0.00 0.00 0.00 0.00 0.00 0.00 0.01 0.01 0.01 0.02 0.03 0.03 0.01 0.00 0.00 0.00 0.01 0.01 0.01 0.03 0.07 0.07 0.15 0.18 0.27 0.43 0.53 0.54
0.01 0.01 0.00 0.00 0.00 0.01 0.02 0.02 0.01 0.02 0.01 0.00 0.01 0.00 0.00 0.00 0.00 0.00 0.00 0.00 0.00 0.00 0.01 0.02 0.01 0.01 0.02 0.01 0.01 0.00 0.01 0.01 0.01 0.01 0.02 0.06 0.12 0.16 0.20 0.31 0.41 0.45 0.44 0.54
0.02 0.02 0.02 0.01 0.00 0.00 0.01 0.01 0.01 0.00 0.00 0.00 0.00 0.01 0.00 0.00 0.00 0.00 0.00 0.00 0.00 0.01 0.01 0.02 0.01 0.01 0.01 0.01 0.01 0.00 0.00 0.01 0.01 0.02 0.04 0.11 0.22 0.41 0.47 0.54 0.55 0.64 0.74 0.65
0.01 0.01 0.01 0.02 0.01 0.01 0.01 0.00 0.01 0.01 0.01 0.01 0.00 0.01 0.01 0.00 0.01 0.01 0.00 0.00 0.00 0.01 0.01 0.02 0.01 0.01 0.01 0.02 0.03 0.01 0.01 0.01 0.01 0.02 0.05 0.10 0.20 0.32 0.52 0.72 0.71 0.73 0.82 0.85
0.01 0.00 0.00 0.01 0.00 0.01 0.04 0.03 0.01 0.01 0.02 0.02 0.01 0.01 0.00 0.00 0.01 0.01 0.00 0.00 0.00 0.01 0.02 0.01 0.01 0.02 0.02 0.02 0.02 0.02 0.02 0.02 0.02 0.02 0.03 0.06 0.14 0.23 0.33 0.47 0.65 0.77 0.85 0.90
0.00 0.01 0.01 0.01 0.02 0.02 0.03 0.05 0.02 0.03 0.02 0.02 0.02 0.01 0.01 0.00 0.00 0.01 0.01 0.01 0.01 0.01 0.01 0.01 0.01 0.02 0.03 0.03 0.02 0.02 0.01 0.01 0.02 0.02 0.02 0.03 0.05 0.13 0.23 0.31 0.35 0.41 0.50 0.58
0.00 0.00 0.00 0.00 0.00 0.01 0.02 0.01 0.01 0.02 0.02 0.02 0.03 0.03 0.02 0.03 0.02 0.02 0.02 0.01 0.01 0.01 0.02 0.02 0.02 0.03 0.02 0.02 0.03 0.02 0.02 0.01 0.01 0.01 0.00 0.00 0.01 0.02 0.04 0.09 0.17 0.22 0.25 0.24
0.01 0.00 0.00 0.00 0.00 0.00 0.00 0.00 0.00 0.00 0.00 0.00 0.01 0.03 0.02 0.02 0.02 0.01 0.01 0.01 0.01 0.02 0.02 0.02 0.02 0.05 0.03 0.02 0.02 0.01 0.02 0.01 0.01 0.01 0.00 0.00 0.00 0.00 0.00 0.00 0.01 0.03 0.06 0.11
0.01 0.01 0.00 0.00 0.00 0.00 0.00 0.00 0.00 0.00 0.00 0.00 0.00 0.00 0.00 0.00 0.00 0.00 0.00 0.00 0.01 0.01 0.02 0.02 0.04 0.04 0.02 0.01 0.02 0.02 0.01 0.01 0.00 0.01 0.01 0.01 0.01 0.00 0.00 0.00 0.01 0.01 0.02 0.02
0.00 0.00 0.00 0.00 0.00 0.00 0.00 0.00 0.00 0.00 0.00 0.00 0.00 0.00 0.00 0.00 0.00 0.00 0.00 0.00 0.00 0.00 0.00 0.01 0.03 0.02 0.01 0.01 0.01 0.01 0.01 0.01 0.01 0.01 0.01 0.00 0.00 0.00 0.00 0.00 0.00 0.01 0.01 0.00
0.00 0.00 0.00 0.00 0.00 0.00 0.00 0.00 0.00 0.00 0.00 0.00 0.00 0.00 0.00 0.00 0.00 0.00 0.00 0.00 0.00 0.00 0.01 0.01 0.01 0.00 0.01 0.01 0.00 0.00 0.01 0.01 0.00 0.01 0.01 0.00 0.01 0.00 0.00 0.00 0.01 0.01 0.01 0.01
0.00 0.00 0.00 0.00 0.00 0.00 0.00 0.00 0.00 0.00 0.00 0.00 0.00 0.00 0.00 0.00 0.00 0.00 0.00 0.00 0.01 0.02 0.02 0.01 0.00 0.00 0.01 0.01 0.00 0.00 0.00 0.00 0.01 0.00 0.00 0.00 0.00 0.01 0.00 0.00 0.00 0.01 0.01 0.01
0.00 0.00 0.00 0.00 0.00 0.00 0.00 0.00 0.00 0.00 0.00 0.00 0.00 0.00 0.00 0.00 0.00 0.00 0.00 0.01 0.00 0.00 0.01 0.00 0.00 0.00 0.00 0.00 0.00 0.01 0.01 0.01 0.01 0.01 0.01 0.01 0.01 0.01 0.01 0.01 0.01 0.01 0.01 0.01
0.00 0.00 0.00 0.00 0.00 0.00 0.00 0.00 0.00 0.00 0.00 0.00 0.00 0.00 0.00 0.00 0.00 0.00 0.00 0.00 0.00 0.00 0.00 0.00 0.00 0.00 0.00 0.00 0.00 0.01 0.01 0.01 0.01 0.01 0.01 0.01 0.01 0.01 0.01 0.01 0.01 0.01 0.01 0.01
0.00 0.00 0.00 0.00 0.00 0.00 0.00 0.00 0.00 0.00 0.00 0.00 0.00 0.00 0.00 0.00 0.00 0.00 0.00 0.00 0.00 0.00 0.00 0.00 0.00 0.00 0.00 0.00 0.01 0.01 0.01 0.01 0.01 0.01 0.01 0.01 0.01 0.01 0.01 0.01 0.01 0.01 0.01 0.01
0.00 0.00 0.00 0.00 0.00 0.00 0.00 0.00 0.00 0.00 0.00 0.00 0.00 0.00 0.00 0.00 0.00 0.00 0.00 0.00 0.00 0.00 0.00 0.00 0.00 0.00 0.00 0.01 0.01 0.01 0.01 0.01 0.01 0.01 0.01 0.01 0.01 0.01 0.01 0.01 0.01 0.01 0.01 0.01
0.00 0.00 0.00 0.00 0.00 0.00 0.00 0.00 0.00 0.00 0.00 0.00 0.00 0.00 0.00 0.00 0.00 0.01 0.00 0.00 0.00 0.00 0.00 0.00 0.00 0.00 0.00 0.01 0.01 0.00 0.01 0.01 0.01 0.00 0.01 0.01 0.01 0.01 0.01 0.01 0.01 0.01 0.01 0.01
0.00 0.00 0.00 0.00 0.00 0.00 0.00 0.00 0.00 0.00 0.00 0.00 0.00 0.00 0.00 0.00 0.00 0.00 0.00 0.00 0.00 0.00 0.00 0.00 0.00 0.00 0.00 0.01 0.01 0.00 0.01 0.01 0.01 0.00 0.00 0.01 0.01 0.01 0.01 0.00 0.01 0.01 0.01 0.01
0.00 0.00 0.00 0.00 0.00 0.00 0.00 0.00 0.00 0.00 0.00 0.00 0.00 0.00 0.00 0.00 0.01 0.00 0.00 0.01 0.00 0.00 0.01 0.01 0.01 0.00 0.00 0.00 0.00 0.01 0.01 0.01 0.01 0.00 0.00 0.01 0.01 0.01 0.01 0.01 0.01 0.01 0.01 0.01

GFSNGP_prec_precacc24_150.txt.gz
Total_Precipitation_Accumulation
0.00 0.00 0.07 0.13 0.02 0.07 0.15 0.07 0.13 0.26 0.09 0.10 0.15 0.22 0.31 0.37 0.28 0.20 0.20 0.33 0.46 0.50 0.43 0.63 0.79 0.66 0.54 0.61 0.53 0.71 0.71 0.55 0.48 0.58 0.79 0.62 0.57 0.74 1.13 1.09 1.13 1.34 1.38 1.42
0.02 0.04 0.12 0.13 0.05 0.02 0.09 0.08 0.11 0.22 0.09 0.11 0.14 0.13 0.06 0.08 0.16 0.19 0.25 0.26 0.23 0.22 0.19 0.10 0.12 0.20 0.15 0.24 0.26 0.22 0.30 0.24 0.32 0.27 0.33 0.38 0.43 0.41 0.46 0.63 0.76 0.84 1.03 1.40
0.07 0.05 0.25 0.30 0.08 0.08 0.07 0.09 0.10 0.12 0.12 0.08 0.05 0.02 0.01 0.01 0.03 0.07 0.13 0.13 0.11 0.05 0.04 0.04 0.02 0.02 0.01 0.02 0.02 0.02 0.05 0.08 0.06 0.05 0.06 0.05 0.09 0.12 0.15 0.23 0.35 0.51 0.66 0.76
0.12 0.10 0.29 0.14 0.03 0.10 0.11 0.09 0.09 0.11 0.07 0.05 0.05 0.05 0.00 0.00 0.01 0.01 0.01 0.01 0.03 0.05 0.03 0.01 0.01 0.01 0.00 0.01 0.00 0.00 0.00 0.00 0.02 0.02 0.01 0.01 0.01 0.00 0.00 0.01 0.02 0.06 0.14 0.23
0.14 0.14 0.09 0.02 0.00 0.02 0.07 0.06 0.03 0.05 0.03 0.02 0.04 0.04 0.06 0.00 0.00 0.01 0.01 0.01 0.01 0.01 0.01 0.01 0.01 0.01 0.00 0.01 0.01 0.01 0.01 0.01 0.01 0.02 0.00 0.00 0.00 0.00 0.00 0.00 0.00 0.00 0.01 0.02
0.06 0.10 0.13 0.04 0.00 0.00 0.04 0.09 0.01 0.01 0.02 0.01 0.00 0.05 0.07 0.01 0.00 0.00 0.00 0.00 0.00 0.00 0.00 0.01 0.02 0.01 0.01 0.02 0.01 0.03 0.03 0.02 0.01 0.02 0.02 0.00 0.00 0.00 0.00 0.00 0.00 0.00 0.00 0.01
0.02 0.06 0.04 0.00 0.00 0.00 0.04 0.08 0.02 0.02 0.03 0.02 0.02 0.03 0.04 0.01 0.00 0.00 0.00 0.00 0.00 0.00 0.00 0.01 0.01 0.01 0.01 0.02 0.04 0.04 0.02 0.01 0.01 0.01 0.03 0.01 0.00 0.00 0.00 0.00 0.00 0.00 0.00 0.01
0.02 0.03 0.03 0.00 0.00 0.01 0.03 0.03 0.01 0.01 0.03 0.03 0.03 0.03 0.01 0.00 0.00 0.00 0.00 0.00 0.00 0.00 0.00 0.00 0.01 0.01 0.02 0.04 0.03 0.01 0.00 0.00 0.01 0.01 0.02 0.03 0.00 0.00 0.00 0.00 0.00 0.00 0.01 0.01
0.01 0.02 0.01 0.00 0.01 0.01 0.01 0.01 0.01 0.00 0.01 0.02 0.01 0.01 0.00 0.00 0.00 0.00 0.00 0.00 0.00 0.00 0.00 0.00 0.00 0.01 0.02 0.03 0.01 0.00 0.00 0.00 0.01 0.01 0.01 0.03 0.02 0.01 0.01 0.00 0.01 0.01 0.03 0.03
0.00 0.01 0.00 0.00 0.00 0.00 0.00 0.00 0.00 0.00 0.00 0.00 0.00 0.00 0.00 0.00 0.00 0.00 0.00 0.00 0.00 0.00 0.01 0.01 0.01 0.01 0.02 0.01 0.01 0.00 0.01 0.01 0.00 0.01 0.01 0.02 0.05 0.03 0.02 0.03 0.02 0.03 0.05 0.06
0.01 0.01 0.01 0.00 0.00 0.00 0.00 0.00 0.00 0.00 0.00 0.00 0.00 0.00 0.00 0.00 0.00 0.00 0.00 0.00 0.00 0.00 0.01 0.01 0.00 0.00 0.00 0.01 0.01 0.00 0.00 0.01 0.00 0.01 0.01 0.01 0.03 0.12 0.07 0.08 0.08 0.10 0.15 0.13
0.01 0.00 0.00 0.01 0.01 0.00 0.01 0.00 0.00 0.00 0.00 0.00 0.00 0.00 0.00 0.00 0.00 0.00 0.00 0.00 0.00 0.00 0.00 0.01 0.00 0.00 0.00 0.01 0.03 0.01 0.01 0.01 0.01 0.01 0.01 0.01 0.01 0.02 0.04 0.05 0.02 0.04 0.07 0.11
0.00 0.00 0.00 0.00 0.00 0.00 0.02 0.01 0.00 0.00 0.00 0.00 0.00 0.00 0.00 0.00 0.00 0.00 0.00 0.00 0.00 0.01 0.01 0.01 0.01 0.01 0.01 0.01 0.02 0.02 0.02 0.01 0.01 0.01 0.01 0.01 0.01 0.01 0.01 0.01 0.02 0.03 0.06 0.09
0.00 0.00 0.01 0.01 0.01 0.01 0.00 0.00 0.00 0.00 0.00 0.00 0.00 0.00 0.00 0.00 0.00 0.00 0.00 0.00 0.00 0.00 0.01 0.01 0.00 0.01 0.02 0.01 0.02 0.01 0.01 0.01 0.01 0.01 0.01 0.01 0.01 0.01 0.01 0.01 0.02 0.03 0.05 0.09
0.00 0.00 0.00 0.00 0.00 0.00 0.00 0.00 0.00 0.00 0.00 0.00 0.00 0.00 0.00 0.00 0.00 0.00 0.00 0.00 0.00 0.00 0.01 0.02 0.01 0.02 0.01 0.01 0.02 0.01 0.01 0.00 0.01 0.01 0.00 0.00 0.00 0.00 0.00 0.00 0.02 0.03 0.04 0.05
0.00 0.00 0.00 0.00 0.00 0.00 0.00 0.00 0.00 0.00 0.00 0.00 0.00 0.00 0.00 0.00 0.00 0.00 0.00 0.00 0.00 0.01 0.01 0.01 0.02 0.03 0.02 0.01 0.02 0.01 0.01 0.00 0.00 0.00 0.00 0.00 0.00 0.00 0.00 0.00 0.00 0.01 0.02 0.04
0.00 0.00 0.00 0.00 0.00 0.00 0.00 0.00 0.00 0.00 0.00 0.00 0.00 0.00 0.00 0.00 0.00 0.00 0.00 0.00 0.00 0.01 0.01 0.01 0.02 0.02 0.01 0.01 0.01 0.01 0.00 0.00 0.00 0.00 0.00 0.00 0.00 0.00 0.00 0.00 0.01 0.01 0.01 0.01
0.00 0.00 0.00 0.00 0.00 0.00 0.00 0.00 0.00 0.00 0.00 0.00 0.00 0.00 0.00 0.00 0.00 0.00 0.00 0.00 0.00 0.00 0.00 0.00 0.01 0.01 0.01 0.00 0.00 0.00 0.00 0.00 0.00 0.00 0.00 0.00 0.00 0.00 0.00 0.00 0.00 0.01 0.01 0.00
0.00 0.00 0.00 0.00 0.00 0.00 0.00 0.00 0.00 0.00 0.00 0.00 0.00 0.00 0.00 0.00 0.00 0.00 0.00 0.00 0.00 0.00 0.00 0.00 0.00 0.00 0.00 0.00 0.00 0.00 0.00 0.00 0.00 0.00 0.00 0.00 0.00 0.00 0.00 0.00 0.01 0.01 0.01 0.01
0.00 0.00 0.00 0.00 0.00 0.00 0.00 0.00 0.00 0.00 0.00 0.00 0.00 0.00 0.00 0.00 0.00 0.00 0.00 0.00 0.00 0.00 0.00 0.00 0.00 0.00 0.00 0.00 0.00 0.00 0.00 0.00 0.00 0.00 0.00 0.00 0.00 0.01 0.00 0.00 0.00 0.01 0.01 0.01
0.00 0.00 0.00 0.00 0.00 0.00 0.00 0.00 0.00 0.00 0.00 0.00 0.00 0.00 0.00 0.00 0.00 0.00 0.00 0.01 0.00 0.00 0.00 0.00 0.00 0.00 0.00 0.00 0.00 0.00 0.00 0.00 0.00 0.01 0.01 0.01 0.01 0.01 0.01 0.01 0.01 0.01 0.01 0.01
0.00 0.00 0.00 0.00 0.00 0.00 0.00 0.00 0.00 0.00 0.00 0.00 0.00 0.00 0.00 0.00 0.00 0.00 0.00 0.00 0.00 0.00 0.00 0.00 0.00 0.00 0.00 0.00 0.00 0.00 0.00 0.00 0.00 0.01 0.01 0.01 0.01 0.01 0.01 0.01 0.01 0.01 0.01 0.01
0.00 0.00 0.00 0.00 0.00 0.00 0.00 0.00 0.00 0.00 0.00 0.00 0.00 0.00 0.00 0.00 0.00 0.00 0.00 0.00 0.00 0.00 0.00 0.00 0.00 0.00 0.00 0.00 0.01 0.01 0.01 0.00 0.01 0.01 0.01 0.01 0.01 0.01 0.01 0.01 0.01 0.01 0.01 0.01
0.00 0.00 0.00 0.00 0.00 0.00 0.00 0.00 0.00 0.00 0.00 0.00 0.00 0.00 0.00 0.00 0.00 0.00 0.00 0.00 0.00 0.00 0.00 0.00 0.00 0.00 0.00 0.01 0.01 0.01 0.01 0.01 0.01 0.01 0.01 0.01 0.01 0.01 0.01 0.01 0.01 0.01 0.01 0.01
0.00 0.00 0.00 0.00 0.00 0.00 0.00 0.00 0.00 0.00 0.00 0.00 0.00 0.00 0.00 0.00 0.00 0.01 0.00 0.00 0.00 0.00 0.00 0.00 0.00 0.00 0.00 0.01 0.01 0.00 0.01 0.01 0.00 0.00 0.01 0.01 0.01 0.01 0.01 0.01 0.01 0.01 0.01 0.01
0.00 0.00 0.00 0.00 0.00 0.00 0.00 0.00 0.00 0.00 0.00 0.00 0.00 0.00 0.00 0.00 0.00 0.00 0.00 0.00 0.00 0.00 0.00 0.00 0.00 0.00 0.00 0.01 0.01 0.00 0.01 0.01 0.01 0.00 0.00 0.01 0.01 0.01 0.01 0.00 0.01 0.01 0.01 0.01
0.00 0.00 0.00 0.00 0.00 0.00 0.00 0.00 0.00 0.00 0.00 0.00 0.00 0.00 0.00 0.00 0.01 0.00 0.00 0.01 0.00 0.00 0.01 0.01 0.01 0.00 0.00 0.00 0.00 0.01 0.01 0.01 0.01 0.00 0.00 0.01 0.01 0.01 0.01 0.01 0.01 0.01 0.01 0.01